Time,TemperatureF,DewpointF,PressureIn,WindDirection,WindDirectionDegrees,WindSpeedMPH,WindSpeedGustMPH,Humidity,HourlyPrecipIn,Conditions,Clouds,dailyrainin,SoftwareType,DateUTC
2013-01-07 00:02:00,21.0,18.0,30.38,WNW,295,0.0,0.0,88,0.00,,,0.00,,2013-01-07 06:02:00,
2013-01-07 00:12:00,21.0,18.0,30.38,WNW,295,0.0,0.0,88,0.00,,,0.00,,2013-01-07 06:12:00,
2013-01-07 00:22:00,21.0,18.0,30.37,WNW,295,0.0,1.0,88,0.00,,,0.00,,2013-01-07 06:22:00,
2013-01-07 00:32:00,21.0,18.0,30.37,WNW,295,0.0,1.0,88,0.00,,,0.00,,2013-01-07 06:32:00,
2013-01-07 00:42:00,21.0,18.0,30.37,WNW,295,0.0,1.0,88,0.00,,,0.00,,2013-01-07 06:42:00,
2013-01-07 00:52:00,20.0,17.0,30.38,WNW,295,1.0,2.0,88,0.00,,,0.00,,2013-01-07 06:52:00,
2013-01-07 01:02:00,20.0,17.0,30.38,WNW,295,1.0,2.0,88,0.00,,,0.00,,2013-01-07 07:02:00,
2013-01-07 01:12:00,20.0,17.0,30.38,WNW,295,1.0,2.0,88,0.00,,,0.00,,2013-01-07 07:12:00,
2013-01-07 01:22:00,20.0,17.0,30.38,WNW,295,0.0,1.0,88,0.00,,,0.00,,2013-01-07 07:22:00,
2013-01-07 01:33:00,20.0,17.0,30.38,WNW,295,0.0,1.0,88,0.00,,,0.00,,2013-01-07 07:33:00,
2013-01-07 01:43:00,20.0,17.0,30.38,WNW,295,0.0,1.0,88,0.00,,,0.00,,2013-01-07 07:43:00,
2013-01-07 01:53:00,20.0,17.0,30.39,WNW,295,1.0,2.0,88,0.00,,,0.00,,2013-01-07 07:53:00,
2013-01-07 02:02:00,20.0,17.0,30.39,WNW,295,1.0,2.0,88,0.00,,,0.00,,2013-01-07 08:02:00,
2013-01-07 02:12:00,20.0,17.0,30.39,WNW,295,1.0,2.0,88,0.00,,,0.00,,2013-01-07 08:12:00,
2013-01-07 02:22:00,20.0,17.0,30.39,WNW,295,0.0,1.0,88,0.00,,,0.00,,2013-01-07 08:22:00,
2013-01-07 02:32:00,20.0,17.0,30.39,WNW,295,0.0,1.0,88,0.00,,,0.00,,2013-01-07 08:32:00,
2013-01-07 02:43:00,20.0,17.0,30.39,WNW,295,0.0,1.0,88,0.00,,,0.00,,2013-01-07 08:43:00,
2013-01-07 02:53:00,20.0,17.0,30.40,WNW,295,1.0,2.0,88,0.00,,,0.00,,2013-01-07 08:53:00,
2013-01-07 03:02:00,20.0,17.0,30.40,WNW,295,1.0,2.0,88,0.00,,,0.00,,2013-01-07 09:02:00,
2013-01-07 03:12:00,20.0,17.0,30.40,WNW,295,1.0,2.0,88,0.00,,,0.00,,2013-01-07 09:12:00,
2013-01-07 03:22:00,19.0,16.0,30.39,WNW,295,1.0,2.0,88,0.00,,,0.00,,2013-01-07 09:22:00,
2013-01-07 03:32:00,19.0,16.0,30.39,WNW,295,1.0,2.0,88,0.00,,,0.00,,2013-01-07 09:32:00,
2013-01-07 03:42:00,19.0,16.0,30.39,WNW,295,1.0,2.0,88,0.00,,,0.00,,2013-01-07 09:42:00,
2013-01-07 03:52:00,19.0,16.0,30.40,WNW,295,1.0,2.0,88,0.00,,,0.00,,2013-01-07 09:52:00,
2013-01-07 04:02:00,19.0,16.0,30.40,WNW,295,1.0,2.0,88,0.00,,,0.00,,2013-01-07 10:02:00,
2013-01-07 04:12:00,19.0,16.0,30.40,WNW,295,1.0,2.0,88,0.00,,,0.00,,2013-01-07 10:12:00,
2013-01-07 04:22:00,19.0,16.0,30.40,WNW,295,1.0,2.0,88,0.00,,,0.00,,2013-01-07 10:22:00,
2013-01-07 04:32:00,19.0,16.0,30.40,WNW,295,1.0,2.0,88,0.00,,,0.00,,2013-01-07 10:32:00,
2013-01-07 04:43:00,19.0,16.0,30.40,WNW,295,1.0,2.0,88,0.00,,,0.00,,2013-01-07 10:43:00,
2013-01-07 04:52:00,20.0,17.0,30.40,WNW,295,1.0,2.0,88,0.00,,,0.00,,2013-01-07 10:52:00,
2013-01-07 05:02:00,20.0,17.0,30.40,WNW,295,1.0,2.0,88,0.00,,,0.00,,2013-01-07 11:02:00,
2013-01-07 05:12:00,20.0,17.0,30.40,WNW,295,1.0,2.0,88,0.00,,,0.00,,2013-01-07 11:12:00,
2013-01-07 05:22:00,19.0,16.0,30.39,WNW,295,1.0,2.0,88,0.00,,,0.00,,2013-01-07 11:22:00,
2013-01-07 05:32:00,19.0,16.0,30.39,WNW,295,1.0,2.0,88,0.00,,,0.00,,2013-01-07 11:32:00,
2013-01-07 05:43:00,19.0,16.0,30.39,WNW,295,1.0,2.0,88,0.00,,,0.00,,2013-01-07 11:43:00,
2013-01-07 05:53:00,19.0,16.0,30.39,WNW,295,1.0,3.0,88,0.00,,,0.00,,2013-01-07 11:53:00,
2013-01-07 06:02:00,19.0,16.0,30.39,WNW,295,1.0,3.0,88,0.00,,,0.00,,2013-01-07 12:02:00,
2013-01-07 06:12:00,19.0,16.0,30.40,WNW,295,0.0,1.0,88,0.00,,,0.00,,2013-01-07 12:12:00,
2013-01-07 06:22:00,19.0,16.0,30.40,WNW,295,0.0,1.0,88,0.00,,,0.00,,2013-01-07 12:22:00,
2013-01-07 06:32:00,19.0,16.0,30.40,WNW,295,0.0,1.0,88,0.00,,,0.00,,2013-01-07 12:32:00,
2013-01-07 06:43:00,19.0,16.0,30.40,WNW,295,0.0,1.0,88,0.00,,,0.00,,2013-01-07 12:43:00,
2013-01-07 06:53:00,19.0,16.0,30.40,WNW,294,1.0,3.0,89,0.00,,,0.00,,2013-01-07 12:53:00,
2013-01-07 07:02:00,19.0,16.0,30.40,WNW,294,1.0,3.0,89,0.00,,,0.00,,2013-01-07 13:02:00,
2013-01-07 07:12:00,19.0,16.0,30.40,WNW,294,1.0,3.0,89,0.00,,,0.00,,2013-01-07 13:12:00,
2013-01-07 07:23:00,20.0,17.0,30.40,SE,137,2.0,3.0,89,0.00,,,0.00,,2013-01-07 13:23:00,
2013-01-07 07:33:00,20.0,17.0,30.40,SE,137,2.0,3.0,89,0.00,,,0.00,,2013-01-07 13:33:00,
2013-01-07 07:43:00,20.0,17.0,30.40,SE,137,2.0,3.0,89,0.00,,,0.00,,2013-01-07 13:43:00,
2013-01-07 07:53:00,20.0,17.0,30.40,SE,137,2.0,5.0,89,0.00,,,0.00,,2013-01-07 13:53:00,
2013-01-07 08:03:00,20.0,17.0,30.40,SE,137,2.0,5.0,89,0.00,,,0.00,,2013-01-07 14:03:00,
2013-01-07 08:12:00,20.0,17.0,30.40,SE,137,2.0,5.0,89,0.00,,,0.00,,2013-01-07 14:12:00,
2013-01-07 08:22:00,22.0,19.0,30.40,SE,143,2.0,4.0,89,0.00,,,0.00,,2013-01-07 14:22:00,
2013-01-07 08:33:00,22.0,19.0,30.40,SE,143,2.0,4.0,89,0.00,,,0.00,,2013-01-07 14:33:00,
2013-01-07 08:43:00,22.0,19.0,30.40,SE,143,2.0,4.0,89,0.00,,,0.00,,2013-01-07 14:43:00,
2013-01-07 08:53:00,25.0,22.0,30.40,SSE,155,3.0,8.0,88,0.00,,,0.00,,2013-01-07 14:53:00,
2013-01-07 09:03:00,25.0,22.0,30.40,SSE,155,3.0,8.0,88,0.00,,,0.00,,2013-01-07 15:03:00,
2013-01-07 09:12:00,25.0,22.0,30.40,SSE,155,3.0,8.0,88,0.00,,,0.00,,2013-01-07 15:12:00,
2013-01-07 09:22:00,27.0,23.0,30.40,SE,145,4.0,8.0,85,0.00,,,0.00,,2013-01-07 15:22:00,
2013-01-07 09:33:00,27.0,23.0,30.40,SE,145,4.0,8.0,85,0.00,,,0.00,,2013-01-07 15:33:00,
2013-01-07 09:43:00,27.0,23.0,30.40,SE,145,4.0,8.0,85,0.00,,,0.00,,2013-01-07 15:43:00,
2013-01-07 09:53:00,29.0,24.0,30.40,South,184,4.0,8.0,81,0.00,,,0.00,,2013-01-07 15:53:00,
2013-01-07 10:02:00,29.0,24.0,30.40,South,184,4.0,8.0,81,0.00,,,0.00,,2013-01-07 16:02:00,
2013-01-07 10:12:00,29.0,24.0,30.40,South,184,4.0,8.0,81,0.00,,,0.00,,2013-01-07 16:12:00,
2013-01-07 10:22:00,30.0,24.0,30.40,South,181,5.0,9.0,78,0.00,,,0.00,,2013-01-07 16:22:00,
2013-01-07 10:33:00,30.0,24.0,30.40,South,181,5.0,9.0,78,0.00,,,0.00,,2013-01-07 16:33:00,
2013-01-07 10:43:00,30.0,24.0,30.40,South,181,5.0,9.0,78,0.00,,,0.00,,2013-01-07 16:43:00,
2013-01-07 10:53:00,32.0,25.0,30.38,SSE,147,6.0,11.0,75,0.00,,,0.00,,2013-01-07 16:53:00,
2013-01-07 11:02:00,32.0,25.0,30.38,SSE,147,6.0,11.0,75,0.00,,,0.00,,2013-01-07 17:02:00,
2013-01-07 11:12:00,32.0,25.0,30.38,SSE,147,6.0,11.0,75,0.00,,,0.00,,2013-01-07 17:12:00,
2013-01-07 11:23:00,33.0,25.0,30.35,SSE,167,6.0,13.0,71,0.00,,,0.00,,2013-01-07 17:23:00,
2013-01-07 11:33:00,33.0,25.0,30.35,SSE,167,6.0,13.0,71,0.00,,,0.00,,2013-01-07 17:33:00,
2013-01-07 11:43:00,33.0,25.0,30.35,SSE,167,6.0,13.0,71,0.00,,,0.00,,2013-01-07 17:43:00,
2013-01-07 11:53:00,34.0,25.0,30.34,SSW,206,7.0,15.0,68,0.00,,,0.00,,2013-01-07 17:53:00,
2013-01-07 12:02:00,34.0,25.0,30.34,SSW,206,7.0,15.0,68,0.00,,,0.00,,2013-01-07 18:02:00,
2013-01-07 12:12:00,34.0,25.0,30.34,SSW,206,7.0,15.0,68,0.00,,,0.00,,2013-01-07 18:12:00,
2013-01-07 12:23:00,35.0,24.0,30.31,SSE,154,6.0,13.0,65,0.00,,,0.00,,2013-01-07 18:23:00,
2013-01-07 12:32:00,35.0,24.0,30.31,SSE,154,6.0,13.0,65,0.00,,,0.00,,2013-01-07 18:32:00,
2013-01-07 12:43:00,36.0,24.0,30.30,SSE,167,5.0,12.0,61,0.00,,,0.00,,2013-01-07 18:43:00,
2013-01-07 12:53:00,36.0,24.0,30.30,SSE,167,5.0,12.0,61,0.00,,,0.00,,2013-01-07 18:53:00,
2013-01-07 13:03:00,36.0,24.0,30.30,SSE,167,5.0,12.0,61,0.00,,,0.00,,2013-01-07 19:03:00,
2013-01-07 13:12:00,36.0,24.0,30.30,SSE,167,5.0,12.0,61,0.00,,,0.00,,2013-01-07 19:12:00,
2013-01-07 13:22:00,37.0,24.0,30.29,South,173,6.0,12.0,60,0.00,,,0.00,,2013-01-07 19:22:00,
2013-01-07 13:33:00,37.0,24.0,30.29,South,173,6.0,12.0,60,0.00,,,0.00,,2013-01-07 19:33:00,
2013-01-07 13:43:00,37.0,24.0,30.29,South,173,6.0,12.0,60,0.00,,,0.00,,2013-01-07 19:43:00,
2013-01-07 13:53:00,37.0,25.0,30.27,South,177,4.0,10.0,62,0.00,,,0.00,,2013-01-07 19:53:00,
2013-01-07 14:03:00,37.0,25.0,30.27,South,177,4.0,10.0,62,0.00,,,0.00,,2013-01-07 20:03:00,
2013-01-07 14:12:00,37.0,25.0,30.27,South,177,4.0,10.0,62,0.00,,,0.00,,2013-01-07 20:12:00,
2013-01-07 14:23:00,38.0,26.0,30.27,SSE,158,3.0,12.0,62,0.00,,,0.00,,2013-01-07 20:23:00,
2013-01-07 14:33:00,38.0,26.0,30.27,SSE,158,3.0,12.0,62,0.00,,,0.00,,2013-01-07 20:33:00,
2013-01-07 14:43:00,38.0,26.0,30.27,SSE,158,3.0,12.0,62,0.00,,,0.00,,2013-01-07 20:43:00,
2013-01-07 14:53:00,38.0,26.0,30.26,SSE,160,5.0,11.0,61,0.00,,,0.00,,2013-01-07 20:53:00,
2013-01-07 15:02:00,38.0,26.0,30.26,SSE,160,5.0,11.0,61,0.00,,,0.00,,2013-01-07 21:02:00,
2013-01-07 15:12:00,38.0,26.0,30.26,SSE,160,5.0,11.0,61,0.00,,,0.00,,2013-01-07 21:12:00,
2013-01-07 15:22:00,38.0,27.0,30.25,South,173,4.0,11.0,64,0.00,,,0.00,,2013-01-07 21:22:00,
2013-01-07 15:33:00,38.0,27.0,30.25,South,173,4.0,11.0,64,0.00,,,0.00,,2013-01-07 21:33:00,
2013-01-07 15:43:00,38.0,27.0,30.25,South,173,4.0,11.0,64,0.00,,,0.00,,2013-01-07 21:43:00,
2013-01-07 15:53:00,37.0,26.0,30.24,SSE,150,4.0,9.0,65,0.00,,,0.00,,2013-01-07 21:53:00,
2013-01-07 16:02:00,37.0,26.0,30.24,SSE,150,4.0,9.0,65,0.00,,,0.00,,2013-01-07 22:02:00,
2013-01-07 16:12:00,37.0,26.0,30.24,SSE,150,4.0,9.0,65,0.00,,,0.00,,2013-01-07 22:12:00,
2013-01-07 16:22:00,37.0,26.0,30.24,SSE,156,4.0,8.0,64,0.00,,,0.00,,2013-01-07 22:22:00,
2013-01-07 16:33:00,37.0,26.0,30.24,SSE,156,4.0,8.0,64,0.00,,,0.00,,2013-01-07 22:33:00,
2013-01-07 16:43:00,37.0,26.0,30.24,SSE,156,4.0,8.0,64,0.00,,,0.00,,2013-01-07 22:43:00,
2013-01-07 16:53:00,36.0,26.0,30.23,SE,143,5.0,9.0,66,0.00,,,0.00,,2013-01-07 22:53:00,
2013-01-07 17:02:00,36.0,26.0,30.23,SE,143,5.0,9.0,66,0.00,,,0.00,,2013-01-07 23:02:00,
2013-01-07 17:12:00,36.0,26.0,30.23,SE,143,5.0,9.0,66,0.00,,,0.00,,2013-01-07 23:12:00,
2013-01-07 17:22:00,34.0,26.0,30.22,SSE,154,4.0,9.0,72,0.00,,,0.00,,2013-01-07 23:22:00,
2013-01-07 17:32:00,34.0,26.0,30.22,SSE,154,4.0,9.0,72,0.00,,,0.00,,2013-01-07 23:32:00,
2013-01-07 17:43:00,34.0,26.0,30.22,SSE,154,4.0,9.0,72,0.00,,,0.00,,2013-01-07 23:43:00,
2013-01-07 17:53:00,33.0,25.0,30.22,SSE,147,6.0,13.0,73,0.00,,,0.00,,2013-01-07 23:53:00,
2013-01-07 18:02:00,33.0,25.0,30.22,SSE,147,6.0,13.0,73,0.00,,,0.00,,2013-01-08 00:02:00,
2013-01-07 18:12:00,33.0,25.0,30.22,SSE,147,6.0,13.0,73,0.00,,,0.00,,2013-01-08 00:12:00,
2013-01-07 18:22:00,33.0,25.0,30.21,SE,137,5.0,10.0,73,0.00,,,0.00,,2013-01-08 00:22:00,
2013-01-07 18:32:00,33.0,25.0,30.21,SE,137,5.0,10.0,73,0.00,,,0.00,,2013-01-08 00:32:00,
2013-01-07 18:43:00,33.0,25.0,30.21,SE,137,5.0,10.0,73,0.00,,,0.00,,2013-01-08 00:43:00,
2013-01-07 18:53:00,32.0,25.0,30.21,SE,141,2.0,7.0,75,0.00,,,0.00,,2013-01-08 00:53:00,
2013-01-07 19:02:00,32.0,25.0,30.21,SE,141,2.0,7.0,75,0.00,,,0.00,,2013-01-08 01:02:00,
2013-01-07 19:12:00,32.0,25.0,30.21,SE,141,2.0,7.0,75,0.00,,,0.00,,2013-01-08 01:12:00,
2013-01-07 19:22:00,32.0,25.0,30.22,SSE,160,3.0,7.0,76,0.00,,,0.00,,2013-01-08 01:22:00,
2013-01-07 19:32:00,32.0,25.0,30.22,SSE,160,3.0,7.0,76,0.00,,,0.00,,2013-01-08 01:32:00,
2013-01-07 19:42:00,32.0,25.0,30.22,SSE,160,3.0,7.0,76,0.00,,,0.00,,2013-01-08 01:42:00,
2013-01-07 19:52:00,31.0,25.0,30.20,SE,146,3.0,7.0,78,0.00,,,0.00,,2013-01-08 01:52:00,
2013-01-07 20:02:00,31.0,25.0,30.20,SE,146,3.0,7.0,78,0.00,,,0.00,,2013-01-08 02:02:00,
2013-01-07 20:12:00,31.0,25.0,30.20,SE,146,3.0,7.0,78,0.00,,,0.00,,2013-01-08 02:12:00,
2013-01-07 20:22:00,31.0,25.0,30.20,SE,145,4.0,8.0,79,0.00,,,0.00,,2013-01-08 02:22:00,
2013-01-07 20:32:00,31.0,25.0,30.20,SE,145,4.0,8.0,79,0.00,,,0.00,,2013-01-08 02:32:00,
2013-01-07 20:43:00,31.0,25.0,30.20,SE,145,4.0,8.0,79,0.00,,,0.00,,2013-01-08 02:43:00,
2013-01-07 20:53:00,31.0,25.0,30.20,SSE,151,4.0,11.0,79,0.00,,,0.00,,2013-01-08 02:53:00,
2013-01-07 21:03:00,31.0,25.0,30.20,SSE,151,4.0,11.0,79,0.00,,,0.00,,2013-01-08 03:03:00,
2013-01-07 21:12:00,31.0,25.0,30.20,SSE,151,4.0,11.0,79,0.00,,,0.00,,2013-01-08 03:12:00,
2013-01-07 21:22:00,31.0,25.0,30.19,SSE,151,4.0,9.0,79,0.00,,,0.00,,2013-01-08 03:22:00,
2013-01-07 21:32:00,31.0,25.0,30.19,SSE,151,4.0,9.0,79,0.00,,,0.00,,2013-01-08 03:32:00,
2013-01-07 21:43:00,31.0,25.0,30.19,SSE,151,4.0,9.0,79,0.00,,,0.00,,2013-01-08 03:43:00,
2013-01-07 21:53:00,31.0,25.0,30.19,SSE,162,5.0,10.0,79,0.00,,,0.00,,2013-01-08 03:53:00,
2013-01-07 22:02:00,31.0,25.0,30.19,SSE,162,5.0,10.0,79,0.00,,,0.00,,2013-01-08 04:02:00,
2013-01-07 22:12:00,31.0,25.0,30.19,SSE,162,5.0,10.0,79,0.00,,,0.00,,2013-01-08 04:12:00,
2013-01-07 22:22:00,31.0,25.0,30.18,SSE,164,7.0,12.0,78,0.00,,,0.00,,2013-01-08 04:22:00,
2013-01-07 22:32:00,31.0,25.0,30.18,SSE,164,7.0,12.0,78,0.00,,,0.00,,2013-01-08 04:32:00,
2013-01-07 22:43:00,31.0,25.0,30.18,SSE,164,7.0,12.0,78,0.00,,,0.00,,2013-01-08 04:43:00,
2013-01-07 22:52:00,31.0,25.0,30.18,South,169,4.0,9.0,78,0.00,,,0.00,,2013-01-08 04:52:00,
2013-01-07 23:03:00,31.0,25.0,30.18,South,169,4.0,9.0,78,0.00,,,0.00,,2013-01-08 05:03:00,
2013-01-07 23:12:00,31.0,25.0,30.18,South,169,4.0,9.0,78,0.00,,,0.00,,2013-01-08 05:12:00,
2013-01-07 23:22:00,31.0,25.0,30.17,SSE,160,3.0,9.0,78,0.00,,,0.00,,2013-01-08 05:22:00,
2013-01-07 23:33:00,31.0,25.0,30.17,SSE,160,3.0,9.0,78,0.00,,,0.00,,2013-01-08 05:33:00,
2013-01-07 23:43:00,31.0,25.0,30.17,SSE,160,3.0,9.0,78,0.00,,,0.00,,2013-01-08 05:43:00,
2013-01-07 23:53:00,31.0,25.0,30.18,SSE,159,4.0,8.0,78,0.00,,,0.00,,2013-01-08 05:53:00,